Retour au catalogue

SHUTIANYUXING-02 SHIYAN XING

ActifScienceSSO
NORAD 65940·PAYLOAD·🇨🇳 China
Ce nom de satellite n'a pas encore été confirmé par des sources officielles.

Lancé Oct 11, 2025 depuis Yellow Sea Launch Area

Loading…

Prochains Passages (prochaines 24 heures)

TLE

FraisSource: Space-Track

Époque: Sep 14, 2026, 11:25 UTC

1 65940U 25226C   26257.47636109  .00005704  00000-0  29124-3 0  9996
2 65940  97.6296 338.0889 0012968 184.2485 175.8640 15.17040108 51219

Suivez SHUTIANYUXING-02 SHIYAN XING en temps réel avec AllMySat

Download on the App Store